Regional Weather Roundup
Issued by NWS Midland/Odessa, TX

Skip options and go directly to product.
Home | Oldest Version | Previous Version | Current Version | All | Text Only | Save Text | Print | Product List | Glossary On

Skip product version selection by date and time.   
366
ASUS44 KMAF 250410
RWRMAF
MIDLAND AREA WEATHER ROUNDUP
NATIONAL WEATHER SERVICE MIDLAND TX
1100 PM CDT FRI OCT 24 2014

...IN SOUTHWEST TEXAS AND SOUTHEAST NEW MEXICO...

CITY           SKY/WX    TMP DP  RH WIND       PRES   REMARKS
ALPINE         CLEAR     62  50  65 SW7       30.32R
ANDREWS        FAIR      67  49  52 SW6       30.18S
ARTESIA        NOT AVBL
BIG SPRING     CLEAR     67  52  58 S8        30.18R
CARLSBAD       CLEAR     64  54  69 S8        30.16R
DRYDEN           N/A     67  62  84 NE8       30.16R
FORT STOCKTON  CLEAR     69  57  65 S13       30.18R
GUAD PASS      CLEAR     66  44  45 SW8       30.32R
HOBBS          CLEAR     63  48  59 S7        30.20R
MARFA          CLEAR     55  52  88 CALM      30.31R
MIDLAND AIRPK  CLEAR     73  50  44 S9        30.18R
MIDLAND INTL   CLEAR     72  50  45 S7        30.17R
ODESSA         CLEAR     69  48  47 S7        30.18R
PECOS          CLEAR     64  53  67 SW3       30.14R
PRESIDIO       FAIR      73  51  47 N6        30.16R
SEMINOLE       CLEAR     64  52  66 SW6       30.18S
SNYDER         CLEAR     70  55  58 SE13      30.15R
WINK           CLEAR     71  50  47 SE12      30.14R
$$
...OTHER STATIONS IN TEXAS...

CITY           SKY/WX    TMP DP  RH WIND       PRES   REMARKS
ABILENE        CLEAR     70  54  56 SE9       30.13R
AMARILLO       CLEAR     63  46  54 S7        30.15R
AUSTIN         CLEAR     63  58  83 CALM      30.14R
BROWNSVILLE    CLEAR     69  66  90 CALM      30.14R
CORPUS CHRISTI CLEAR     68  63  84 S5        30.13R
DALLAS FTW     PTCLDY    72  60  66 S8        30.09R
DEL RIO        CLEAR     72  63  73 SE5       30.12R
EL PASO        CLEAR     71  47  42 CALM      30.20R
HOUSTON INT    CLEAR     61  58  90 CALM      30.15R
LUBBOCK        CLEAR     65  51  60 S6        30.16R
SAN ANGELO     CLEAR     70  55  59 S9        30.14R
SAN ANTONIO    CLEAR     72  58  61 CALM      30.15R
WACO           CLEAR     70  60  70 S9        30.12R
WICHITA FALLS  NOT AVBL
$$
...OTHER LOCATIONS IN NEW MEXICO...

CITY           SKY/WX    TMP DP  RH WIND       PRES   REMARKS
ALAMAGORDO     NOT AVBL
ALBUQUERQUE    CLEAR     60  36  40 CALM      30.28R
CANNON AFB     CLEAR     58  43  57 W8        30.21R
CLOVIS         CLEAR     57  39  51 W9        30.23R
HOLLOMAN AFB   PTCLDY    60  47  62 E6        30.21R
ROSWELL        CLEAR     60  54  80 S6        30.17R
RUIDOSO        CLEAR     54  39  58 SW8       30.39R
SANTA FE       CLEAR     54  25  32 NE7       30.32R
TRUTH OR CONSE CLEAR     67  43  41 S7        30.24R
TUCUMCARI      CLEAR     66  42  41 SW13      30.15R
$$

USA.gov is the U.S. government's official web portal to all federal, state and local government web resources and services.